Tracking 18794 objects as of 22-September-2017
HD Live streaming from Space Station
objects crossing your sky now

THORAD AGENA D DEB

Track THORAD AGENA D DEB now!
10-day predictions


NORAD ID: 4768
Int'l Code: 1970-025DN
Perigee: 986.2 km
Apogee: 1,029.8 km
Inclination: 100.2 °
Period: 105.1 minutes
Semi major axis: 7378 km
RCS: 0.064 m2 (small)
Launch date: April 8, 1970
Source: United States (US)
Launch site: AIR FORCE WESTERN TEST RANGE (AFWTR)

Note: This is SATELLITE DEBRIS
aabbcc
Your satellite tracking list
Your tracking list is empty





NASA's NSSDC Master Catalog

Two Line Element Set (TLE):
1  4768U 70025DN  17264.48305671 +.00000058 +00000-0 +12283-3 0  9995
2  4768 100.2102 085.9708 0029598 168.8654 245.7620 13.69640671360841
Source of the keplerian elements: AFSPC